GLD1444 SBGL-SBBR

Flight info

Callsign GLD1444
Flight time 1h 27m
Altitude 38000
Route UTMI1A EDNAM UM409 ISIPI KOGN2A
Aircraft A20N/M-SDFGIRY/S

Departure

Time 2026-04-29 20:30
Airport Rio Galeão – Tom Jobim International Airport (SBGL)

Arrival

Time 2026-04-29 21:58
Airport Presidente Juscelino Kubitschek International Airport (SBBR)
Time Latitude Longitude Altitude Speed Heading
2026-04-29 20:20 -22.81039 -43.25323 25 ft 0 kts 93°
2026-04-29 20:25 -22.81039 -43.25339 23 ft 2 kts 89°
2026-04-29 20:25 -22.81039 -43.25356 23 ft 2 kts 81°
2026-04-29 20:25 -22.81043 -43.25374 25 ft 2 kts 59°
2026-04-29 20:25 -22.81055 -43.25385 23 ft 2 kts
2026-04-29 20:26 -22.81063 -43.25386 24 ft 0 kts
2026-04-29 20:26 -22.81058 -43.25386 25 ft 1 kts 360°
2026-04-29 20:26 -22.81038 -43.25386 23 ft 5 kts 360°
2026-04-29 20:26 -22.80991 -43.25381 21 ft 9 kts
2026-04-29 20:27 -22.80962 -43.25411 22 ft 6 kts 294°
2026-04-29 20:27 -22.80949 -43.25440 25 ft 6 kts 295°
2026-04-29 20:27 -22.80932 -43.25473 27 ft 3 kts 305°
2026-04-29 20:27 -22.80912 -43.25508 28 ft 10 kts 298°
2026-04-29 20:28 -22.80847 -43.25576 24 ft 18 kts
2026-04-29 20:28 -22.80728 -43.25510 23 ft 21 kts 36°
2026-04-29 20:28 -22.80607 -43.25418 30 ft 18 kts 44°
2026-04-29 20:28 -22.80494 -43.25379 28 ft 20 kts 323°
2026-04-29 20:29 -22.80377 -43.25469 28 ft 20 kts 326°
2026-04-29 20:29 -22.80256 -43.25512 28 ft 17 kts 17°
2026-04-29 20:29 -22.80174 -43.25440 25 ft 15 kts 76°
2026-04-29 20:29 -22.80121 -43.25243 27 ft 63 kts 74°
2026-04-29 20:30 -22.79919 -43.24474 31 ft 144 kts 74°
2026-04-29 20:30 -22.79608 -43.23308 570 ft 163 kts 76°
2026-04-29 20:30 -22.79288 -43.22128 1545 ft 165 kts 76°
2026-04-29 20:30 -22.78974 -43.20904 2381 ft 173 kts 76°
2026-04-29 20:31 -22.78700 -43.19573 2898 ft 194 kts 77°
2026-04-29 20:31 -22.78406 -43.18040 3359 ft 219 kts 77°
2026-04-29 20:31 -22.78066 -43.16320 4075 ft 245 kts 76°
2026-04-29 20:31 -22.77678 -43.14440 4895 ft 265 kts 76°
2026-04-29 20:32 -22.77257 -43.12449 5834 ft 274 kts 76°
2026-04-29 20:32 -22.76823 -43.10415 6874 ft 279 kts 76°
2026-04-29 20:32 -22.76388 -43.08379 7865 ft 283 kts 77°
2026-04-29 20:32 -22.75939 -43.06280 8794 ft 287 kts 77°
2026-04-29 20:33 -22.75484 -43.04151 9705 ft 292 kts 77°
2026-04-29 20:33 -22.75014 -43.01985 10430 ft 302 kts 73°
2026-04-29 20:33 -22.74034 -42.99893 10724 ft 324 kts 50°
2026-04-29 20:33 -22.72263 -42.98280 11061 ft 342 kts 27°
2026-04-29 20:34 -22.70029 -42.97532 11780 ft 344 kts
2026-04-29 20:34 -22.67659 -42.97732 12642 ft 343 kts 343°
2026-04-29 20:34 -22.65464 -42.98756 13226 ft 346 kts 333°
2026-04-29 20:34 -22.63343 -42.99988 13341 ft 345 kts 331°
2026-04-29 20:35 -22.61232 -43.01259 13697 ft 349 kts 330°
2026-04-29 20:35 -22.59116 -43.02534 14553 ft 346 kts 330°
2026-04-29 20:35 -22.57023 -43.03785 15221 ft 350 kts 330°
2026-04-29 20:35 -22.54880 -43.05065 15926 ft 353 kts 330°
2026-04-29 20:36 -22.52708 -43.06335 16614 ft 356 kts 333°
2026-04-29 20:36 -22.50425 -43.07381 17316 ft 357 kts 339°
2026-04-29 20:36 -22.48058 -43.08295 17889 ft 363 kts 339°
2026-04-29 20:36 -22.45688 -43.09216 18425 ft 367 kts 339°
2026-04-29 20:37 -22.43280 -43.10156 19008 ft 369 kts 338°
2026-04-29 20:37 -22.40849 -43.11109 19572 ft 372 kts 338°
2026-04-29 20:37 -22.38406 -43.12067 20137 ft 375 kts 338°
2026-04-29 20:37 -22.35942 -43.13033 20694 ft 378 kts 338°
2026-04-29 20:38 -22.33454 -43.14009 21212 ft 381 kts 338°
2026-04-29 20:38 -22.30954 -43.14988 21774 ft 384 kts 338°
2026-04-29 20:38 -22.28470 -43.15961 22345 ft 385 kts 337°
2026-04-29 20:38 -22.25933 -43.16954 22855 ft 389 kts 337°
2026-04-29 20:39 -22.23380 -43.17952 23402 ft 391 kts 337°
2026-04-29 20:39 -22.20807 -43.18958 23845 ft 395 kts 337°
2026-04-29 20:39 -22.18202 -43.19977 24209 ft 400 kts 337°
2026-04-29 20:39 -22.15639 -43.21087 24643 ft 400 kts 332°
2026-04-29 20:40 -22.13182 -43.22502 25071 ft 401 kts 327°
2026-04-29 20:40 -22.10766 -43.24033 25489 ft 403 kts 327°
2026-04-29 20:40 -22.08338 -43.25561 25899 ft 406 kts 327°
2026-04-29 20:40 -22.05889 -43.27098 26302 ft 408 kts 327°
2026-04-29 20:41 -22.03426 -43.28641 26703 ft 411 kts 327°
2026-04-29 20:41 -22.00945 -43.30194 27091 ft 413 kts 327°
2026-04-29 20:41 -21.98444 -43.31760 27475 ft 416 kts 327°
2026-04-29 20:41 -21.95927 -43.33336 27852 ft 418 kts 327°
2026-04-29 20:42 -21.93435 -43.34895 28210 ft 421 kts 327°
2026-04-29 20:42 -21.90898 -43.36480 28552 ft 423 kts 327°
2026-04-29 20:42 -21.88324 -43.38090 28795 ft 429 kts 327°
2026-04-29 20:42 -21.85739 -43.39704 29176 ft 430 kts 327°
2026-04-29 20:43 -21.83140 -43.41327 29537 ft 432 kts 327°
2026-04-29 20:43 -21.80523 -43.42962 29866 ft 435 kts 327°
2026-04-29 20:43 -21.77928 -43.44584 30215 ft 437 kts 327°
2026-04-29 20:43 -21.75296 -43.46231 30519 ft 439 kts 327°
2026-04-29 20:44 -21.72641 -43.47890 30821 ft 441 kts 327°
2026-04-29 20:44 -21.69975 -43.49555 31138 ft 443 kts 327°
2026-04-29 20:44 -21.67329 -43.51207 31520 ft 443 kts 327°
2026-04-29 20:44 -21.64653 -43.52877 31933 ft 443 kts 327°
2026-04-29 20:45 -21.61981 -43.54543 32348 ft 442 kts 327°
2026-04-29 20:45 -21.59310 -43.56209 32666 ft 444 kts 327°
2026-04-29 20:45 -21.56638 -43.57875 33043 ft 443 kts 327°
2026-04-29 20:45 -21.54007 -43.59510 33465 ft 442 kts 327°
2026-04-29 20:46 -21.51347 -43.61158 33879 ft 441 kts 327°
2026-04-29 20:46 -21.48687 -43.62806 34257 ft 440 kts 327°
2026-04-29 20:46 -21.46038 -43.64446 34605 ft 439 kts 327°
2026-04-29 20:46 -21.43391 -43.66084 34943 ft 438 kts 326°
2026-04-29 20:47 -21.40748 -43.67720 35255 ft 437 kts 326°
2026-04-29 20:47 -21.38111 -43.69351 35567 ft 437 kts 326°
2026-04-29 20:47 -21.35505 -43.70964 35886 ft 436 kts 326°
2026-04-29 20:47 -21.32875 -43.72590 36187 ft 435 kts 326°
2026-04-29 20:48 -21.30242 -43.74218 36481 ft 435 kts 326°
2026-04-29 20:48 -21.27648 -43.75820 36770 ft 434 kts 326°
2026-04-29 20:48 -21.25033 -43.77449 37045 ft 433 kts 325°
2026-04-29 20:48 -21.22463 -43.79118 37312 ft 432 kts 324°
2026-04-29 20:49 -21.19900 -43.80807 37580 ft 431 kts 324°
2026-04-29 20:49 -21.17343 -43.82491 37837 ft 431 kts 324°
2026-04-29 20:49 -21.14790 -43.84166 38064 ft 430 kts 324°
2026-04-29 20:49 -21.12266 -43.85815 38143 ft 429 kts 324°
2026-04-29 20:50 -21.07175 -43.89131 38083 ft 428 kts 324°
2026-04-29 20:50 -21.02076 -43.92449 38076 ft 428 kts 325°
2026-04-29 20:51 -20.96961 -43.95775 38069 ft 431 kts 325°
2026-04-29 20:51 -20.91871 -43.99080 38074 ft 430 kts 325°
2026-04-29 20:52 -20.86746 -44.02405 38064 ft 430 kts 325°
2026-04-29 20:52 -20.81647 -44.05712 38066 ft 430 kts 325°
2026-04-29 20:53 -20.76521 -44.09033 38067 ft 430 kts 325°
2026-04-29 20:53 -20.71431 -44.12357 38066 ft 430 kts 324°
2026-04-29 20:54 -20.63757 -44.17369 38058 ft 431 kts 325°
2026-04-29 20:55 -20.58650 -44.20664 38062 ft 431 kts 325°
2026-04-29 20:55 -20.53501 -44.23966 38057 ft 432 kts 325°
2026-04-29 20:56 -20.48331 -44.27284 38060 ft 432 kts 325°
2026-04-29 20:56 -20.43178 -44.30590 38063 ft 433 kts 325°
2026-04-29 20:57 -20.38010 -44.33916 38052 ft 433 kts 325°
2026-04-29 20:57 -20.32869 -44.37225 38057 ft 434 kts 326°
2026-04-29 20:58 -20.27693 -44.40552 38055 ft 434 kts 326°
2026-04-29 20:58 -20.22539 -44.43862 38052 ft 434 kts 326°
2026-04-29 20:59 -20.17360 -44.47185 38047 ft 434 kts 326°
2026-04-29 20:59 -20.12178 -44.50508 38046 ft 434 kts 326°
2026-04-29 21:00 -20.06993 -44.53831 38044 ft 435 kts 326°
2026-04-29 21:00 -20.01833 -44.57134 38043 ft 435 kts 326°
2026-04-29 21:01 -19.96637 -44.60459 38043 ft 436 kts 326°
2026-04-29 21:01 -19.91438 -44.63785 38040 ft 436 kts 326°
2026-04-29 21:02 -19.86260 -44.67092 38040 ft 436 kts 326°
2026-04-29 21:02 -19.81056 -44.70412 38036 ft 436 kts 326°
2026-04-29 21:03 -19.75833 -44.73744 38023 ft 437 kts 326°
2026-04-29 21:03 -19.70609 -44.77073 38028 ft 437 kts 326°
2026-04-29 21:04 -19.65420 -44.80378 38025 ft 437 kts 326°
2026-04-29 21:04 -19.60190 -44.83706 38032 ft 438 kts 326°
2026-04-29 21:05 -19.54982 -44.87018 38027 ft 438 kts 326°
2026-04-29 21:05 -19.49742 -44.90347 38022 ft 438 kts 326°
2026-04-29 21:06 -19.44504 -44.93673 38020 ft 439 kts 326°
2026-04-29 21:06 -19.39283 -44.96985 38018 ft 439 kts 326°
2026-04-29 21:07 -19.34037 -45.00311 38020 ft 439 kts 326°
2026-04-29 21:07 -19.29673 -45.03076 38023 ft 439 kts 326°
2026-04-29 21:08 -19.23529 -45.06966 38004 ft 440 kts 326°
2026-04-29 21:08 -19.18298 -45.10274 38006 ft 440 kts 326°
2026-04-29 21:09 -19.13025 -45.13606 38001 ft 441 kts 326°
2026-04-29 21:09 -19.07782 -45.16918 38002 ft 441 kts 326°
2026-04-29 21:10 -19.02500 -45.20251 38002 ft 441 kts 326°
2026-04-29 21:10 -18.97227 -45.23576 38004 ft 441 kts 327°
2026-04-29 21:11 -18.91973 -45.26887 38006 ft 442 kts 327°
2026-04-29 21:11 -18.86693 -45.30212 38006 ft 442 kts 327°
2026-04-29 21:12 -18.81395 -45.33546 37999 ft 443 kts 327°
2026-04-29 21:12 -18.76986 -45.36318 38001 ft 443 kts 327°
2026-04-29 21:13 -18.71677 -45.39653 38012 ft 443 kts 327°
2026-04-29 21:13 -18.66398 -45.42968 38014 ft 444 kts 327°
2026-04-29 21:14 -18.61083 -45.46303 38021 ft 444 kts 327°
2026-04-29 21:14 -18.55767 -45.49635 38016 ft 443 kts 327°
2026-04-29 21:15 -18.50504 -45.52933 38016 ft 443 kts 327°
2026-04-29 21:15 -18.45200 -45.56254 38023 ft 443 kts 326°
2026-04-29 21:16 -18.40162 -45.59962 38016 ft 441 kts 321°
2026-04-29 21:16 -18.35239 -45.63820 38019 ft 441 kts 321°
2026-04-29 21:17 -18.29511 -45.68293 38018 ft 441 kts 321°
2026-04-29 21:17 -18.25410 -45.71491 38019 ft 441 kts 321°
2026-04-29 21:18 -18.20475 -45.75339 38011 ft 441 kts 321°
2026-04-29 21:18 -18.15555 -45.79171 38024 ft 441 kts 321°
2026-04-29 21:19 -18.10628 -45.83007 38024 ft 441 kts 321°
2026-04-29 21:19 -18.05693 -45.86846 38023 ft 441 kts 321°
2026-04-29 21:20 -18.00782 -45.90664 38011 ft 441 kts 321°
2026-04-29 21:20 -17.95844 -45.94500 38014 ft 442 kts 321°
2026-04-29 21:21 -17.90896 -45.98340 38020 ft 442 kts 321°
2026-04-29 21:21 -17.85943 -46.02183 38012 ft 442 kts 321°
2026-04-29 21:22 -17.80990 -46.06023 38007 ft 443 kts 321°
2026-04-29 21:22 -17.76026 -46.09867 38007 ft 443 kts 321°
2026-04-29 21:23 -17.71060 -46.13711 38008 ft 443 kts 321°
2026-04-29 21:23 -17.66117 -46.17535 38006 ft 444 kts 321°
2026-04-29 21:24 -17.61136 -46.21385 38004 ft 444 kts 321°
2026-04-29 21:24 -17.56160 -46.25229 37998 ft 444 kts 321°
2026-04-29 21:25 -17.51206 -46.29052 37999 ft 444 kts 321°
2026-04-29 21:25 -17.46218 -46.32900 37997 ft 444 kts 321°
2026-04-29 21:26 -17.41238 -46.36739 37996 ft 444 kts 321°
2026-04-29 21:26 -17.36243 -46.40586 37989 ft 445 kts 322°
2026-04-29 21:27 -17.31281 -46.44406 37988 ft 445 kts 322°
2026-04-29 21:27 -17.26283 -46.48250 37990 ft 445 kts 322°
2026-04-29 21:28 -17.21323 -46.52063 37993 ft 445 kts 322°
2026-04-29 21:28 -17.16321 -46.55906 37984 ft 446 kts 322°
2026-04-29 21:29 -17.11400 -46.59871 37998 ft 445 kts 317°
2026-04-29 21:29 -17.06723 -46.64055 37997 ft 445 kts 317°
2026-04-29 21:30 -17.02007 -46.68258 38002 ft 445 kts 317°
2026-04-29 21:30 -16.97290 -46.72455 37992 ft 445 kts 317°
2026-04-29 21:31 -16.92562 -46.76661 37995 ft 446 kts 317°
2026-04-29 21:31 -16.87859 -46.80841 37999 ft 446 kts 317°
2026-04-29 21:32 -16.83127 -46.85044 38004 ft 447 kts 317°
2026-04-29 21:32 -16.78390 -46.89248 38000 ft 447 kts 318°
2026-04-29 21:33 -16.73669 -46.93437 37992 ft 448 kts 318°
2026-04-29 21:33 -16.68917 -46.97649 37860 ft 447 kts 318°
2026-04-29 21:33 -16.66547 -46.99748 37368 ft 447 kts 318°
2026-04-29 21:34 -16.64156 -47.01867 36500 ft 452 kts 318°
2026-04-29 21:34 -16.61735 -47.04012 35434 ft 461 kts 318°
2026-04-29 21:34 -16.59265 -47.06200 34384 ft 470 kts 319°
2026-04-29 21:34 -16.56794 -47.08386 33357 ft 471 kts 319°
2026-04-29 21:35 -16.54292 -47.10597 32587 ft 470 kts 319°
2026-04-29 21:35 -16.51797 -47.12804 31718 ft 471 kts 319°
2026-04-29 21:35 -16.49295 -47.15016 30817 ft 472 kts 320°
2026-04-29 21:35 -16.46793 -47.17228 30035 ft 472 kts 320°
2026-04-29 21:36 -16.44310 -47.19422 29457 ft 464 kts 320°
2026-04-29 21:36 -16.41867 -47.21580 28837 ft 457 kts 320°
2026-04-29 21:36 -16.39453 -47.23711 28223 ft 451 kts 320°
2026-04-29 21:36 -16.37061 -47.25798 27645 ft 445 kts 321°
2026-04-29 21:37 -16.34662 -47.27810 27033 ft 440 kts 322°
2026-04-29 21:37 -16.32310 -47.29757 26432 ft 435 kts 322°
2026-04-29 21:37 -16.29947 -47.31713 25850 ft 430 kts 322°
2026-04-29 21:37 -16.27608 -47.33657 25261 ft 427 kts 322°
2026-04-29 21:38 -16.25297 -47.35583 24675 ft 423 kts 322°
2026-04-29 21:38 -16.23010 -47.37492 24096 ft 419 kts 322°
2026-04-29 21:38 -16.20737 -47.39390 23494 ft 416 kts 322°
2026-04-29 21:38 -16.18514 -47.41247 22884 ft 411 kts 322°
2026-04-29 21:39 -16.16295 -47.43099 22317 ft 406 kts 322°
2026-04-29 21:39 -16.14098 -47.44933 21747 ft 401 kts 322°
2026-04-29 21:39 -16.11930 -47.46742 21180 ft 397 kts 322°
2026-04-29 21:39 -16.09785 -47.48531 20619 ft 393 kts 322°
2026-04-29 21:40 -16.07681 -47.50285 20062 ft 390 kts 322°
2026-04-29 21:40 -16.05572 -47.52043 19492 ft 387 kts 322°
2026-04-29 21:40 -16.03472 -47.53793 18928 ft 385 kts 322°
2026-04-29 21:40 -16.01384 -47.55533 18368 ft 383 kts 322°
2026-04-29 21:41 -15.99307 -47.57262 17778 ft 380 kts 322°
2026-04-29 21:41 -15.97294 -47.58979 17247 ft 376 kts 319°
2026-04-29 21:41 -15.95519 -47.60967 16706 ft 374 kts 309°
2026-04-29 21:41 -15.94101 -47.63221 16167 ft 372 kts 299°
2026-04-29 21:42 -15.92956 -47.65636 15622 ft 370 kts 297°
2026-04-29 21:42 -15.91828 -47.68029 15100 ft 367 kts 297°
2026-04-29 21:42 -15.90697 -47.70414 14550 ft 366 kts 297°
2026-04-29 21:42 -15.89569 -47.72785 14008 ft 365 kts 297°
2026-04-29 21:43 -15.88459 -47.75114 13436 ft 363 kts 297°
2026-04-29 21:43 -15.87344 -47.77454 12952 ft 359 kts 297°
2026-04-29 21:43 -15.86240 -47.79767 12438 ft 355 kts 297°
2026-04-29 21:43 -15.85148 -47.82058 11997 ft 353 kts 296°
2026-04-29 21:44 -15.84060 -47.84336 11518 ft 350 kts 296°
2026-04-29 21:44 -15.82990 -47.86578 11398 ft 350 kts 296°
2026-04-29 21:44 -15.81934 -47.88793 11295 ft 332 kts 296°
2026-04-29 21:44 -15.80942 -47.90871 11196 ft 310 kts 295°
2026-04-29 21:45 -15.80017 -47.92812 11112 ft 290 kts 295°
2026-04-29 21:45 -15.79145 -47.94641 11100 ft 275 kts 295°
2026-04-29 21:45 -15.78329 -47.96352 11096 ft 259 kts 295°
2026-04-29 21:45 -15.77601 -47.98006 11106 ft 247 kts 285°
2026-04-29 21:46 -15.77328 -47.99791 11038 ft 252 kts 266°
2026-04-29 21:46 -15.77456 -48.01573 10983 ft 242 kts 264°
2026-04-29 21:46 -15.77578 -48.03276 10897 ft 231 kts 264°
2026-04-29 21:46 -15.77684 -48.04897 10677 ft 221 kts 264°
2026-04-29 21:47 -15.77784 -48.06463 10309 ft 218 kts 264°
2026-04-29 21:47 -15.77884 -48.08033 9934 ft 216 kts 263°
2026-04-29 21:47 -15.77976 -48.09510 9863 ft 196 kts 263°
2026-04-29 21:47 -15.78061 -48.10874 9748 ft 182 kts 263°
2026-04-29 21:48 -15.78140 -48.12139 9639 ft 169 kts 263°
2026-04-29 21:48 -15.78216 -48.13336 9419 ft 163 kts 262°
2026-04-29 21:48 -15.78286 -48.14441 9236 ft 148 kts 262°
2026-04-29 21:48 -15.78358 -48.15519 8819 ft 151 kts 262°
2026-04-29 21:49 -15.78431 -48.16618 8417 ft 153 kts 263°
2026-04-29 21:49 -15.78579 -48.17693 8048 ft 151 kts 248°
2026-04-29 21:49 -15.79096 -48.18611 7691 ft 146 kts 223°
2026-04-29 21:49 -15.79924 -48.19214 7304 ft 145 kts 198°
2026-04-29 21:50 -15.80892 -48.19405 6977 ft 141 kts 175°
2026-04-29 21:50 -15.81832 -48.19188 6652 ft 138 kts 153°
2026-04-29 21:50 -15.82591 -48.18623 6429 ft 134 kts 130°
2026-04-29 21:50 -15.83220 -48.17884 6242 ft 136 kts 130°
2026-04-29 21:51 -15.83861 -48.17162 6059 ft 135 kts 131°
2026-04-29 21:51 -15.84494 -48.16462 5883 ft 134 kts 131°
2026-04-29 21:51 -15.85775 -48.15042 5524 ft 133 kts 131°
2026-04-29 21:52 -15.86405 -48.14339 5466 ft 133 kts 131°
2026-04-29 21:52 -15.87036 -48.13634 5470 ft 134 kts 131°
2026-04-29 21:52 -15.87664 -48.12932 5467 ft 134 kts 131°
2026-04-29 21:52 -15.88303 -48.12217 5473 ft 136 kts 131°
2026-04-29 21:53 -15.88871 -48.11441 5478 ft 135 kts 116°
2026-04-29 21:53 -15.89121 -48.10500 5432 ft 135 kts 94°
2026-04-29 21:53 -15.89067 -48.09555 5282 ft 130 kts 86°
2026-04-29 21:53 -15.88993 -48.08614 5031 ft 131 kts 86°
2026-04-29 21:54 -15.88931 -48.07660 5029 ft 133 kts 88°
2026-04-29 21:54 -15.88870 -48.06702 5023 ft 135 kts 88°
2026-04-29 21:54 -15.88812 -48.05727 5033 ft 135 kts 87°
2026-04-29 21:54 -15.88753 -48.04768 5034 ft 133 kts 87°
2026-04-29 21:55 -15.88694 -48.03821 5034 ft 134 kts 86°
2026-04-29 21:55 -15.88632 -48.02834 5033 ft 135 kts 87°
2026-04-29 21:55 -15.88571 -48.01875 4980 ft 134 kts 87°
2026-04-29 21:55 -15.88509 -48.00911 4819 ft 133 kts 88°
2026-04-29 21:56 -15.88448 -47.99951 4644 ft 135 kts 87°
2026-04-29 21:56 -15.88386 -47.98985 4473 ft 134 kts 87°
2026-04-29 21:56 -15.88324 -47.98019 4302 ft 134 kts 86°
2026-04-29 21:56 -15.88260 -47.97050 4122 ft 135 kts 86°
2026-04-29 21:57 -15.88188 -47.96078 3887 ft 133 kts 87°
2026-04-29 21:57 -15.88132 -47.95129 3713 ft 133 kts 88°
2026-04-29 21:57 -15.88077 -47.94157 3554 ft 136 kts 86°
2026-04-29 21:57 -15.88011 -47.93208 3477 ft 121 kts 87°
2026-04-29 21:58 -15.87980 -47.92651 3476 ft 34 kts 85°
2026-04-29 21:58 -15.87965 -47.92423 3477 ft 32 kts 86°
2026-04-29 21:58 -15.87948 -47.92187 3473 ft 33 kts 85°
2026-04-29 21:58 -15.87935 -47.91972 3470 ft 20 kts 86°
2026-04-29 21:59 -15.87889 -47.91829 3472 ft 22 kts 59°
2026-04-29 21:59 -15.87804 -47.91698 3470 ft 23 kts 57°
2026-04-29 21:59 -15.87769 -47.91641 3470 ft 3 kts 57°
2026-04-29 21:59 -15.87740 -47.91619 3470 ft 7 kts 357°
2026-04-29 22:00 -15.87675 -47.91640 3470 ft 13 kts 341°
2026-04-29 22:00 -15.87572 -47.91651 3468 ft 17 kts 357°
2026-04-29 22:00 -15.87445 -47.91658 3470 ft 20 kts 356°
2026-04-29 22:00 -15.87309 -47.91674 3470 ft 12 kts 327°
2026-04-29 22:01 -15.87307 -47.91708 3470 ft 10 kts 244°
2026-04-29 22:01 -15.87310 -47.91754 3470 ft 6 kts 309°
2026-04-29 22:01 -15.87268 -47.91758 3468 ft 11 kts 354°
2026-04-29 22:01 -15.87254 -47.91761 3469 ft 0 kts 348°